Miscellaneous Local Product
Issued by NWS Hastings, NE

Home | Current Version | Previous Version | Graphics & Text | Print | Product List | Glossary On
Versions: 1 2 3 4 5 6 7 8 9 10 11 12 13 14 15 16 17 18 19 20 21 22 23 24 25 26 27 28 29 30 31 32 33 34 35 36 37 38 39 40 41 42 43 44 45 46 47 48 49 50
405
AXUS43 KGID 200602
MISGRI

GID CWA HOURLY WEATHER ROUNDUP
NATIONAL WEATHER SERVICE HASTINGS NE
100 AM CDT THU JUL 20 2017

NOTE: "FAIR" INDICATES FEW OR NO CLOUDS BELOW 12,000 FEET WITH NO
SIGNIFICANT WEATHER AND/OR OBSTRUCTIONS TO VISIBILITY.

...SOUTH CENTRAL NEBRASKA...

CITY           SKY/WX    TMP DP  RH WIND       PRES   REMARKS
GRAND ISLAND   CLOUDY    81  66  60 S10       29.99R
HASTINGS       CLEAR     77  64  64 S9        29.99S
KEARNEY        CLOUDY    83  63  50 S15       30.00R
ORD            CLOUDY    79  64  60 CALM      30.02S
YORK           CLEAR     77  68  73 S6        29.98R
AURORA         CLOUDY    80  65  61 S8        29.99R
LEXINGTON      CLOUDY    80  62  54 S8        30.01R
HOLDREGE       CLEAR     77  62  61 S8        30.01R
HEBRON         CLEAR     82  70  67 S8        29.99R

...NEBRASKA PANHANDLE...

CITY           SKY/WX    TMP DP  RH WIND       PRES   REMARKS
CHADRON        LGT RAIN  79  57  46 NW7       30.09R
ALLIANCE       LGT RAIN  67  65  93 W21G30    30.11F
SCOTTSBLUFF    LGT RAIN  68  64  87 N12       30.15F
SIDNEY         CLOUDY    73  61  65 N15       30.12R

...WESTERN AND NORTH CENTRAL NEBRASKA...

CITY           SKY/WX    TMP DP  RH WIND       PRES   REMARKS
VALENTINE      CLOUDY    76  66  71 CALM      30.00R
AINSWORTH      CLOUDY    76  65  69 SW8       30.02R
ONEILL         CLOUDY    88  56  34 SE5G23    29.90F
BROKEN BOW     CLOUDY    80  67  64 E12       30.05R
IMPERIAL       MOCLDY    79  58  48 W8        30.03R
NORTH PLATTE   CLOUDY    85  58  39 N16G23    30.01R
MCCOOK         CLOUDY    82  58  43 S13       29.98R

...EASTERN NEBRASKA...

CITY           SKY/WX    TMP DP  RH WIND       PRES   REMARKS
NORFOLK        CLOUDY    81  75  82 W7        30.00R
SO SIOUX CITY  CLOUDY    88  74  63 VRB6      29.86R HX  96
TEKAMAH        MOCLDY    81  77  88 S9        29.93F
COLUMBUS       CLOUDY    86  67  52 W7        29.98R
ALBION         CLOUDY    84  74  72 N12G18    30.02R HX  90
OMAHA EPPLEY   CLOUDY    86  72  62 S10       29.94S HX  92
OFFUTT AFB     CLOUDY    80  73  79 SE6       29.95S
MILLARD        CLOUDY    85  74  68 S7        29.95R HX  92
LINCOLN        CLOUDY    85  70  60 S14       29.96R
NEBRASKA CITY  CLOUDY    79  75  87 S12       29.97S
BEATRICE       CLEAR     83  69  63 S10       29.98R
FALLS CITY     CLOUDY    81  72  74 S9        29.98R

...NORTHERN KANSAS...

CITY           SKY/WX    TMP DP  RH WIND       PRES   REMARKS
GOODLAND       CLOUDY    78  57  48 S16       30.05S
HILL CITY      CLEAR     83  61  47 S9        30.00S
NORTON         CLEAR     79  54  41 S12G18    30.00R
PHILLIPSBURG   CLEAR     84  57  39 S7        30.00R
SMITH CENTER   CLEAR     77  61  57 SE8       30.01R
HAYS           CLEAR     84  62  47 S16       30.01F
RUSSELL        CLEAR     84  61  45 S14       30.00S
CONCORDIA      CLEAR     83  68  60 S17       29.99S
SALINA         CLEAR     86  66  51 S14       30.00R
TOPEKA         CLEAR     83  72  69 S10       30.01S



USA.gov is the U.S. government's official web portal to all federal, state and local government web resources and services.